Location: Kuffner-Sternwarte
(48.2130°N, 16.2960°E)
Time: 10:05:20
(UTC+02:00)

COROT - Visible Passes

Search period start: 11 August 2020 00:00
Search period end: 21 August 2020 00:00
Orbit: 600 x 887 km, 90.0° (Epoch: 10 August)

Date Brightness Start Highest point End Pass type
(mag) Time Alt. Az. Time Alt. Az. Time Alt. Az.
11 Aug 7.4 04:10:47 10° SSE 04:16:06 44° E 04:21:10 10° N visible
12 Aug 8.5 03:29:02 10° ESE 03:33:11 22° ENE 03:37:10 10° NNE visible
12 Aug 6.2 05:06:46 10° S 05:12:21 62° W 05:17:38 10° N visible
13 Aug 9.2 02:49:44 10° ENE 02:50:28 10° ENE 02:51:12 10° ENE visible
13 Aug 6.6 04:23:34 10° SSE 04:29:07 65° E 04:34:20 10° N visible
14 Aug 7.9 03:41:17 10° SE 03:46:04 31° ENE 03:50:37 10° NNE visible
15 Aug 8.8 03:00:13 10° ESE 03:03:13 15° ENE 03:06:09 10° NE visible
15 Aug 6.1 04:36:36 10° S 04:42:10 86° W 04:47:22 10° N visible
16 Aug 7.2 03:53:49 10° SSE 03:59:01 45° E 04:03:53 10° N visible
17 Aug 8.3 03:12:02 10° ESE 03:16:03 22° ENE 03:19:53 10° NNE visible
17 Aug 6.2 04:49:53 10° SSW 04:55:16 58° W 05:00:18 10° N visible
18 Aug 6.4 04:06:38 10° SSE 04:12:00 67° E 04:17:01 10° N visible
19 Aug 7.7 03:24:16 10° SE 03:28:55 31° ENE 03:33:18 10° NNE visible
19 Aug 6.6 05:03:25 10° SSW 05:08:24 38° W 05:13:05 10° NNW visible
20 Aug 8.7 02:43:12 10° ESE 02:46:02 15° ENE 02:48:48 10° NE visible
20 Aug 5.9 04:19:41 10° S 04:25:03 82° W 04:30:01 10° N visible
